KB2FWP Weather Reports


time (UTC)temp
F
wind
direction
speed
knots
gust
knots
rain 1hr
in
rain 24hr
in
rain mn
in
humidity
%
barometer
mb
20191022014544 52 103 0.0 0.0 0.00 0.16 0.00 86 1020.8
20191022013105 52 103 0.0 0.0 0.00 0.16 0.00 86 1020.6
20191022011545 53 103 0.0 0.0 0.00 0.16 0.00 86 1020.2
20191022010055 53 103 0.0 0.0 0.00 0.16 0.00 86 1020.0
20191022004557 53 103 0.0 0.0 0.00 0.17 0.00 87 1019.9
20191022003106 54 103 0.0 0.0 0.00 0.17 0.00 86 1020.1
20191022001648 54 103 0.0 0.0 0.00 0.17 0.00 86 1020.4
20191022000045 54 103 0.0 0.0 0.00 0.17 0.00 85 1019.7
20191021234535 55 103 0.0 0.0 0.00 0.21 0.00 85 1020.0
20191021233106 55 103 0.0 0.0 0.00 0.21 0.00 85 1020.3
20191021231617 56 103 0.0 0.0 0.00 0.21 0.00 84 1020.3
20191021230029 57 103 0.0 0.0 0.00 0.21 0.00 83 1020.0
20191021224554 57 103 0.0 0.0 0.00 0.28 0.00 81 1019.9
20191021223047 58 103 0.0 0.0 0.00 0.28 0.00 79 1019.6
20191021221526 59 103 0.0 0.0 0.00 0.28 0.00 78 1019.8
20191021220104 60 103 0.0 0.0 0.00 0.28 0.00 76 1019.5
20191021214607 60 103 0.0 2.6 0.00 0.53 0.00 75 1019.6
20191021213054 61 115 1.7 4.3 0.00 0.53 0.00 73 1019.4
20191021211554 62 115 1.7 5.2 0.00 0.53 0.00 72 1019.4
20191021210034 62 103 0.9 5.2 0.00 0.53 0.00 72 1019.4
20191021204525 62 113 1.7 7.0 0.00 0.62 0.00 72 1019.1
20191021201640 63 123 4.3 8.7 0.00 0.62 0.00 69 1018.9
20191021200114 64 136 2.6 9.6 0.00 0.62 0.00 66 1018.7
20191021194658 64 69 2.6 7.8 0.00 0.66 0.00 66 1018.9
20191021193121 67 37 0.0 7.0 0.00 0.66 0.00 60 1018.7
20191021191607 67 355 3.5 8.7 0.00 0.66 0.00 59 1018.4
20191021190236 66 71 2.6 7.8 0.00 0.66 0.00 55 1018.4
20191021184757 68 33 1.7 7.8 0.00 0.68 0.00 53 1018.2
20191021183154 67 72 1.7 8.7 0.00 0.68 0.00 56 1018.1
20191021181643 67 101 4.3 9.6 0.00 0.68 0.00 53 1018.2
20191021180154 67 59 4.3 10.4 0.00 0.68 0.00 52 1018.3
20191021174642 68 59 1.7 6.1 0.00 0.68 0.00 52 1018.4
20191021173141 66 18 2.6 8.7 0.00 0.68 0.00 55 1018.5
20191021171629 69 15 0.9 8.7 0.00 0.68 0.00 54 1018.4
20191021170054 67 43 1.7 9.6 0.00 0.68 0.00 58 1018.5
20191021164549 67 39 2.6 8.7 0.00 0.68 0.00 60 1018.6
20191021163110 66 323 2.6 7.8 0.00 0.68 0.00 63 1018.9
20191021161639 66 78 1.7 7.0 0.00 0.68 0.00 63 1018.6
20191021160156 65 48 1.7 7.8 0.00 0.68 0.00 63 1018.6
20191021154536 66 331 2.6 7.8 0.00 0.68 0.00 61 1018.6
20191021153124 65 338 2.6 9.6 0.00 0.68 0.00 63 1018.7
20191021151547 63 74 2.6 9.6 0.00 0.68 0.00 67 1018.5
20191021150043 62 339 1.7 8.7 0.00 0.68 0.00 69 1018.3
20191021144607 63 40 0.0 9.6 0.00 0.68 0.00 70 1018.2
20191021143106 61 335 3.5 10.4 0.00 0.68 0.00 72 1018.2
20191021141538 61 53 2.6 9.6 0.00 0.68 0.00 72 1018.3
20191021140047 60 67 3.5 9.6 0.00 0.68 0.00 72 1018.2
20191021134528 59 36 2.6 13.0 0.00 0.68 0.00 75 1017.9
20191021133029 59 350 2.6 7.8 0.00 0.68 0.00 76 1018.0
20191021131538 58 94 2.6 7.8 0.00 0.68 0.00 76 1018.0
20191021130019 56 22 2.6 12.2 0.00 0.68 0.00 78 1017.9
20191021124516 56 337 2.6 8.7 0.00 0.68 0.00 80 1017.7
20191021123004 55 336 0.9 7.0 0.00 0.68 0.00 82 1017.6
20191021121505 54 351 0.0 7.0 0.00 0.68 0.00 84 1017.7
20191021120434 53 331 1.7 7.0 0.00 0.68 0.00 84 1017.5
20191021114714 52 24 0.9 10.4 0.00 0.68 0.00 85 1017.4
20191021113322 52 351 1.7 7.8 0.00 0.68 0.00 85 1017.2
20191021111625 52 41 1.7 5.2 0.00 0.68 0.00 85 1016.9
20191021110156 52 339 1.7 8.7 0.00 0.68 0.00 85 1016.9
20191021104708 52 5 1.7 7.0 0.00 0.68 0.00 86 1016.8
20191021103105 53 345 0.9 7.8 0.00 0.68 0.00 86 1016.6
20191021101703 53 325 0.0 7.0 0.00 0.68 0.00 86 1016.6
20191021100115 53 5 3.5 10.4 0.00 0.68 0.00 86 1016.4
20191021094605 54 315 0.0 5.2 0.00 0.68 0.00 87 1016.1
20191021093059 54 38 1.7 7.0 0.00 0.68 0.00 87 1016.0
20191021091625 54 55 1.7 7.0 0.00 0.68 0.00 87 1016.0
20191021090117 54 316 0.9 7.0 0.00 0.68 0.00 87 1016.0
20191021084607 54 69 0.0 5.2 0.00 0.68 0.00 87 1015.7
20191021083118 54 15 1.7 7.8 0.00 0.68 0.00 87 1015.6